Weather History for KEWR - September, 2013

Change the Weather History Date:

Tuesday, September 10, 2013

  Actual Average Record
Temperature  
Mean Temperature 79 °F 70 °F  
Max Temperature 89 °F 79 °F 98 °F (1983)
Min Temperature 68 °F 62 °F 44 °F (1938)
Degree Days  
Heating Degree Days 0 1  
Month to date heating degree days 3 1  
Since 1 July heating degree days 3 2  
Cooling Degree Days 14 6  
Month to date cooling degree days 75 71  
Year to date cooling degree days 1246 1105  
Growing Degree Days 28 (Base 50)    
Moisture  
Dew Point 67 °F    
Average Humidity 70    
Maximum Humidity 84    
Minimum Humidity 55    
Precipitation  
Precipitation T in 0.11 in 1.45 in (1957)
Month to date precipitation 0.14 1.14  
Year to date precipitation 33.44 32.51  
Snow  
Snow 0.00 in 0.00 in 0.00 in (2002)
Month to date snowfall 0.0 0.0  
Since 1 July snowfall 0.0 0.0  
Snow Depth 0.00 in    
Sea Level Pressure  
Sea Level Pressure 30.12 in    
Wind  
Wind Speed 11 mph (SSW)    
Max Wind Speed 17 mph    
Max Gust Speed 24 mph    
Visibility 10 miles    
Events      
T = Trace of Precipitation, MM = Missing Value Source: NWS Daily Summary

Daily Weather History Graph

Daily Weather History Graph

Search for Another Location

Airport or City:

Trip Planner

Search our weather history database for the weather conditions in past years. The results will help you decide how hot, cold, wet, or windy it might be!

Date:

Astronomy

Sep. 10, 2013 Rise Set
Actual Time 6:32 AM EDT 7:13 PM EDT
Civil Twilight 6:05 AM EDT 7:41 PM EDT
Nautical Twilight 5:32 AM EDT 8:13 PM EDT
Astronomical Twilight 4:58 AM EDT 8:47 PM EDT
Moon 11:57 AM EDT (9/10) 10:12 PM EDT (9/10)
Length of Visible Light 13h 36m
Length of Day
12h 41m
Waxing Crescent, 28% of the Moon is Illuminated
Sep 10
Waxing Crescent
Sep 12
First Quarter
Sep 19
Full
Sep 26
Last Quarter
Oct 4
New

Hourly Weather History & Observations

Time (EDT) Temp. Heat Index Dew Point Humidity Pressure Visibility Wind Dir Wind Speed Gust Speed Precip Events Conditions
12:51 AM 68.0 °F - 60.1 °F 76% 30.16 in 10.0 mi South 9.2 mph - N/A   Overcast
1:24 AM 68.0 °F - 60.8 °F 78% 30.14 in 10.0 mi South 12.7 mph - N/A   Overcast
1:51 AM 68.0 °F - 61.0 °F 78% 30.16 in 10.0 mi South 8.1 mph - N/A   Overcast
2:51 AM 69.1 °F - 62.1 °F 78% 30.15 in 10.0 mi South 9.2 mph - N/A   Overcast
3:51 AM 68.0 °F - 63.0 °F 84% 30.14 in 10.0 mi SSW 10.4 mph - 0.00 in   Overcast
4:51 AM 69.1 °F - 63.0 °F 81% 30.14 in 10.0 mi South 9.2 mph 18.4 mph N/A   Overcast
5:43 AM 69.8 °F - 62.6 °F 78% 30.14 in 10.0 mi South 8.1 mph - N/A   Overcast
5:51 AM 69.1 °F - 63.0 °F 81% 30.15 in 10.0 mi SSW 9.2 mph - N/A   Overcast
6:51 AM 70.0 °F - 64.0 °F 81% 30.15 in 10.0 mi SSW 11.5 mph - N/A   Overcast
7:51 AM 71.1 °F - 66.0 °F 84% 30.14 in 10.0 mi SSW 9.2 mph - N/A   Overcast
8:51 AM 72.0 °F - 66.9 °F 84% 30.15 in 10.0 mi SW 11.5 mph - N/A   Overcast
9:42 AM 75.2 °F - 68.0 °F 78% 30.16 in 10.0 mi SW 15.0 mph - N/A   Mostly Cloudy
9:51 AM 75.0 °F - 66.9 °F 76% 30.17 in 10.0 mi SW 13.8 mph - N/A   Mostly Cloudy
10:10 AM 75.2 °F - 68.0 °F 78% 30.15 in 10.0 mi SW 13.8 mph 20.7 mph N/A   Mostly Cloudy
10:23 AM 77.0 °F - 68.0 °F 74% 30.15 in 10.0 mi SW 13.8 mph - N/A   Mostly Cloudy
10:51 AM 78.1 °F - 69.1 °F 74% 30.16 in 10.0 mi SW 13.8 mph 20.7 mph N/A   Mostly Cloudy
11:51 AM 78.1 °F - 69.1 °F 74% 30.14 in 9.0 mi SW 11.5 mph - 0.00 in   Overcast
12:51 PM 82.9 °F 86.5 °F 69.1 °F 63% 30.12 in 9.0 mi SW 11.5 mph 17.3 mph N/A   Mostly Cloudy
1:14 PM 82.4 °F 86.3 °F 69.8 °F 66% 30.11 in 10.0 mi SW 10.4 mph - N/A   Mostly Cloudy
1:51 PM 84.9 °F 89.4 °F 70.0 °F 61% 30.09 in 10.0 mi SW 10.4 mph - N/A   Mostly Cloudy
2:51 PM 87.1 °F 92.0 °F 70.0 °F 57% 30.06 in 10.0 mi SSW 11.5 mph 20.7 mph N/A   Mostly Cloudy
3:51 PM 89.1 °F 95.0 °F 71.1 °F 55% 30.06 in 9.0 mi SW 15.0 mph 20.7 mph N/A   Mostly Cloudy
4:51 PM 88.0 °F 93.8 °F 71.1 °F 57% 30.05 in 9.0 mi SW 9.2 mph - N/A   Mostly Cloudy
5:51 PM 86.0 °F 91.5 °F 71.1 °F 61% 30.06 in 9.0 mi WSW 12.7 mph - N/A   Mostly Cloudy
6:51 PM 84.9 °F 90.1 °F 71.1 °F 63% 30.07 in 9.0 mi WSW 13.8 mph 19.6 mph N/A   Mostly Cloudy
7:51 PM 84.0 °F 89.0 °F 71.1 °F 65% 30.08 in 9.0 mi SW 12.7 mph - N/A   Mostly Cloudy
8:51 PM 82.9 °F 88.0 °F 72.0 °F 69% 30.09 in 9.0 mi South 6.9 mph - N/A   Scattered Clouds
9:51 PM 81.0 °F 85.2 °F 72.0 °F 74% 30.10 in 9.0 mi South 9.2 mph - N/A   Scattered Clouds
10:51 PM 81.0 °F 85.2 °F 72.0 °F 74% 30.10 in 8.0 mi SSW 9.2 mph 17.3 mph N/A   Mostly Cloudy
11:51 PM 79.0 °F - 72.0 °F 79% 30.11 in 9.0 mi SSW 9.2 mph - N/A   Partly Cloudy